﻿"﻿最高氣溫 (攝氏度) - �W��"
"Maximum Temperature (°C) - Sheung Shui"
年/Year,月/Month,日/Day,數值/Value,"數據完整性/data Completeness"
2004,8,1,33.8,C
2004,8,2,34.5,C
2004,8,3,34.4,C
2004,8,4,32.7,C
2004,8,5,31.5,C
2004,8,6,29.3,C
2004,8,7,34.7,C
2004,8,8,32.3,C
2004,8,9,34.3,C
2004,8,10,35.2,C
2004,8,11,33.6,C
2004,8,12,31.1,C
2004,8,13,33.8,C
2004,8,14,33.5,C
2004,8,15,32.9,C
2004,8,16,34.8,#
2004,8,17,35.0,C
2004,8,18,33.3,C
2004,8,19,33.1,C
2004,8,20,31.4,C
2004,8,21,26.6,C
2004,8,22,27.6,C
2004,8,23,32.6,C
2004,8,24,34.0,C
2004,8,25,35.2,C
2004,8,26,28.8,#
2004,8,27,26.9,C
2004,8,28,30.5,#
2004,8,29,27.6,C
2004,8,30,29.6,#
2004,8,31,30.0,C
2004,9,1,35.1,C
2004,9,2,35.3,C
2004,9,3,33.1,#
2004,9,4,33.4,#
2004,9,5,33.2,C
2004,9,6,35.0,C
2004,9,7,34.5,C
2004,9,8,28.5,C
2004,9,9,24.7,C
2004,9,10,26.5,C
2004,9,11,28.6,C
2004,9,12,29.0,C
2004,9,13,32.6,C
2004,9,14,31.5,C
2004,9,15,32.4,#
2004,9,16,32.7,C
2004,9,17,32.3,#
2004,9,18,32.4,C
2004,9,19,30.1,C
2004,9,20,32.4,C
2004,9,21,32.6,C
2004,9,22,30.8,#
2004,9,23,32.3,C
2004,9,24,30.7,C
2004,9,25,31.1,C
2004,9,26,32.0,C
2004,9,27,32.4,C
2004,9,28,33.9,C
2004,9,29,34.9,C
2004,9,30,32.7,C
2004,10,1,33.5,C
2004,10,2,24.7,C
2004,10,3,27.6,C
2004,10,4,28.5,C
2004,10,5,29.9,C
2004,10,6,29.8,C
2004,10,7,30.5,C
2004,10,8,30.0,C
2004,10,9,31.5,C
2004,10,10,31.3,C
2004,10,11,29.2,C
2004,10,12,30.7,C
2004,10,13,30.7,C
2004,10,14,29.3,C
2004,10,15,28.9,C
2004,10,16,29.3,#
2004,10,17,29.5,C
2004,10,18,30.4,#
2004,10,19,29.3,#
2004,10,20,29.2,C
2004,10,21,29.7,C
2004,10,22,29.7,C
2004,10,23,28.1,C
2004,10,24,28.9,C
2004,10,25,30.3,C
2004,10,26,27.0,#
2004,10,27,26.8,C
2004,10,28,28.5,C
2004,10,29,29.3,C
2004,10,30,30.0,C
2004,10,31,28.9,C
2004,11,1,28.7,C
2004,11,2,27.1,C
2004,11,3,28.2,C
2004,11,4,27.0,C
2004,11,5,27.4,C
2004,11,6,27.9,C
2004,11,7,28.5,C
2004,11,8,27.9,#
2004,11,9,25.8,#
2004,11,10,29.6,C
2004,11,11,30.5,#
2004,11,12,28.6,C
2004,11,13,27.3,C
2004,11,14,29.6,C
2004,11,15,23.7,C
2004,11,16,19.2,C
2004,11,17,24.6,#
2004,11,18,24.3,C
2004,11,19,25.8,C
2004,11,20,25.1,C
2004,11,21,24.8,C
2004,11,22,25.5,C
2004,11,23,23.4,C
2004,11,24,26.2,C
2004,11,25,26.7,C
2004,11,26,22.4,C
2004,11,27,21.7,C
2004,11,28,25.6,C
2004,11,29,26.4,C
2004,11,30,25.7,C
2004,12,1,26.5,C
2004,12,2,27.0,C
2004,12,3,24.9,C
2004,12,4,24.8,C
2004,12,5,21.9,#
2004,12,6,22.6,#
2004,12,7,21.4,C
2004,12,8,22.5,#
2004,12,9,23.2,C
2004,12,10,24.8,C
2004,12,11,24.7,C
2004,12,12,24.4,C
2004,12,13,24.4,C
2004,12,14,23.2,C
2004,12,15,25.6,C
2004,12,16,25.9,C
2004,12,17,25.7,#
2004,12,18,24.9,C
2004,12,19,25.2,C
2004,12,20,24.2,#
2004,12,21,22.7,C
2004,12,22,23.8,C
2004,12,23,25.8,C
2004,12,24,21.2,#
2004,12,25,20.6,C
2004,12,26,24.2,C
2004,12,27,21.0,C
2004,12,28,13.5,#
2004,12,29,12.2,C
2004,12,30,14.3,C
2004,12,31,10.3,C
2005,1,1,12.2,C
2005,1,2,13.2,C
2005,1,3,18.6,#
2005,1,4,18.0,C
2005,1,5,18.0,C
2005,1,6,21.9,C
2005,1,7,23.1,C
2005,1,8,19.8,C
2005,1,9,18.3,C
2005,1,10,18.3,#
2005,1,11,21.3,C
2005,1,12,18.5,C
2005,1,13,13.7,C
2005,1,14,14.9,C
2005,1,15,16.0,C
2005,1,16,17.7,C
2005,1,17,18.4,C
2005,1,18,20.5,C
2005,1,19,20.3,#
2005,1,20,15.4,C
2005,1,21,19.8,C
2005,1,22,22.3,C
2005,1,23,24.0,C
2005,1,24,22.5,C
2005,1,25,23.3,C
2005,1,26,22.3,C
2005,1,27,22.2,C
2005,1,28,20.2,C
2005,1,29,20.0,C
2005,1,30,18.4,C
2005,1,31,12.5,C
2005,2,1,11.6,#
2005,2,2,12.6,C
2005,2,3,14.1,C
2005,2,4,19.9,C
2005,2,5,21.0,C
2005,2,6,21.0,C
2005,2,7,26.7,#
2005,2,8,24.9,#
2005,2,9,22.4,#
2005,2,10,24.2,C
2005,2,11,19.0,C
2005,2,12,23.9,C
2005,2,13,21.5,C
2005,2,14,20.4,C
2005,2,15,22.6,C
2005,2,16,24.9,#
2005,2,17,24.2,#
2005,2,18,17.2,#
2005,2,19,12.7,#
2005,2,20,8.8,#
2005,2,21,8.4,C
2005,2,22,9.8,#
2005,2,23,19.4,#
2005,2,24,22.0,C
2005,2,25,21.0,C
2005,2,26,16.4,C
2005,2,27,13.8,C
2005,2,28,14.1,C
2005,3,1,13.6,C
2005,3,2,12.8,C
2005,3,3,13.9,C
2005,3,4,13.3,C
2005,3,5,18.5,#
2005,3,6,19.4,C
2005,3,7,23.8,C
2005,3,8,22.5,#
2005,3,9,24.2,#
2005,3,10,23.3,#
2005,3,11,22.7,#
2005,3,12,22.2,C
2005,3,13,8.9,C
2005,3,14,12.6,C
2005,3,15,18.6,C
2005,3,16,22.2,C
2005,3,17,26.6,C
2005,3,18,22.6,#
2005,3,19,22.3,C
2005,3,20,25.2,#
2005,3,21,20.9,C
2005,3,22,25.0,C
2005,3,23,24.6,C
2005,3,24,22.3,C
2005,3,25,19.8,C
2005,3,26,19.3,C
2005,3,27,24.7,C
2005,3,28,28.8,C
2005,3,29,26.7,C
2005,3,30,19.1,#
2005,3,31,17.8,#
2005,4,1,17.7,C
2005,4,2,25.3,#
2005,4,3,27.0,C
2005,4,4,25.2,#
2005,4,5,23.5,C
2005,4,6,25.4,C
2005,4,7,30.1,C
2005,4,8,29.3,C
2005,4,9,28.5,C
2005,4,10,28.4,C
2005,4,11,29.9,#
2005,4,12,24.3,#
2005,4,13,15.3,#
2005,4,14,25.4,C
2005,4,15,23.9,C
2005,4,16,21.5,C
2005,4,17,24.5,C
2005,4,18,28.9,C
2005,4,19,29.6,C
2005,4,20,30.8,C
2005,4,21,28.3,C
2005,4,22,30.1,C
2005,4,23,28.2,#
2005,4,24,27.7,C
2005,4,25,25.4,C
2005,4,26,26.8,C
2005,4,27,22.9,C
2005,4,28,29.7,C
2005,4,29,28.6,C
2005,4,30,28.2,C
2005,5,1,29.2,C
2005,5,2,30.6,C
2005,5,3,31.4,C
2005,5,4,30.3,#
2005,5,5,30.3,C
2005,5,6,28.2,C
2005,5,7,27.6,C
2005,5,8,27.0,C
2005,5,9,26.8,C
2005,5,10,25.3,C
2005,5,11,25.4,C
2005,5,12,30.8,C
2005,5,13,31.1,#
2005,5,14,31.1,C
2005,5,15,32.5,C
2005,5,16,31.9,C
2005,5,17,30.7,#
2005,5,18,32.3,C
2005,5,19,26.6,C
2005,5,20,28.1,C
2005,5,21,30.2,C
2005,5,22,33.3,C
2005,5,23,31.6,C
2005,5,24,28.9,C
2005,5,25,29.3,C
2005,5,26,26.5,#
2005,5,27,28.3,#
2005,5,28,29.4,C
2005,5,29,28.6,C
2005,5,30,31.1,C
2005,5,31,30.1,C
2005,6,1,31.8,C
2005,6,2,31.5,C
2005,6,3,34.3,C
2005,6,4,29.2,C
2005,6,5,27.8,C
2005,6,6,28.4,C
2005,6,7,27.0,C
2005,6,8,30.7,C
2005,6,9,29.7,C
2005,6,10,32.0,#
2005,6,11,34.0,C
2005,6,12,31.6,C
2005,6,13,31.1,C
2005,6,14,31.9,C
2005,6,15,28.7,C
2005,6,16,27.1,C
2005,6,17,29.0,C
2005,6,18,30.7,C
2005,6,19,30.9,C
2005,6,20,30.3,C
2005,6,21,28.8,C
2005,6,22,27.9,C
2005,6,23,25.8,C
2005,6,24,27.3,C
2005,6,25,31.7,C
2005,6,26,30.9,C
2005,6,27,32.7,C
2005,6,28,33.2,C
2005,6,29,31.1,C
2005,6,30,27.7,#
2005,7,1,31.9,C
2005,7,2,31.8,C
2005,7,3,34.6,C
2005,7,4,33.7,C
2005,7,5,34.0,C
2005,7,6,33.8,C
2005,7,7,29.7,#
2005,7,8,30.8,C
2005,7,9,28.4,C
2005,7,10,32.3,C
2005,7,11,33.8,#
2005,7,12,33.5,C
2005,7,13,33.5,C
2005,7,14,34.0,C
2005,7,15,32.4,C
2005,7,16,34.4,C
2005,7,17,34.5,C
2005,7,18,35.2,#
2005,7,19,37.1,C
2005,7,20,36.2,C
2005,7,21,34.5,C
2005,7,22,28.6,#
2005,7,23,31.5,C
2005,7,24,33.0,C
2005,7,25,33.2,C
2005,7,26,32.6,C
2005,7,27,33.6,C
2005,7,28,33.1,C
2005,7,29,28.7,C
2005,7,30,27.9,C
2005,7,31,27.0,C
2005,8,1,33.0,C
2005,8,2,32.8,C
2005,8,3,33.7,C
2005,8,4,34.4,C
2005,8,5,33.4,C
2005,8,6,35.0,C
2005,8,7,34.0,C
2005,8,8,34.1,C
2005,8,9,31.7,C
2005,8,10,29.8,C
2005,8,11,30.8,C
2005,8,12,34.7,C
2005,8,13,29.3,C
2005,8,14,31.4,#
2005,8,15,30.1,C
2005,8,16,28.9,C
2005,8,17,28.8,C
2005,8,18,27.3,C
2005,8,19,26.0,C
2005,8,20,25.0,C
2005,8,21,27.4,C
2005,8,22,31.1,C
2005,8,23,31.3,C
2005,8,24,30.6,C
2005,8,25,30.8,C
2005,8,26,27.3,C
2005,8,27,29.6,C
2005,8,28,31.8,C
2005,8,29,32.5,C
2005,8,30,33.1,C
2005,8,31,33.9,C
2005,9,1,33.5,#
2005,9,2,33.7,C
2005,9,3,30.6,C
2005,9,4,28.0,C
2005,9,5,35.0,C
2005,9,6,33.1,C
2005,9,7,34.8,C
2005,9,8,33.6,#
2005,9,9,32.7,C
2005,9,10,32.6,C
2005,9,11,33.7,C
2005,9,12,34.3,C
2005,9,13,33.1,C
2005,9,14,35.1,C
2005,9,15,36.8,C
2005,9,16,36.0,C
2005,9,17,33.4,C
2005,9,18,30.7,C
2005,9,19,34.4,C
2005,9,20,31.5,C
2005,9,21,32.6,C
2005,9,22,36.2,C
2005,9,23,32.7,C
2005,9,24,26.4,C
2005,9,25,26.8,C
2005,9,26,26.8,C
2005,9,27,27.3,C
2005,9,28,34.3,C
2005,9,29,32.7,#
2005,9,30,33.2,C
2005,10,1,32.3,C
2005,10,2,34.7,C
2005,10,3,34.0,C
2005,10,4,31.5,C
2005,10,5,33.2,C
2005,10,6,33.6,C
2005,10,7,32.9,C
2005,10,8,31.0,C
2005,10,9,30.1,C
2005,10,10,32.6,C
2005,10,11,32.2,C
2005,10,12,31.6,C
2005,10,13,32.2,C
2005,10,14,33.8,C
2005,10,15,31.1,C
2005,10,16,30.7,C
2005,10,17,30.5,#
2005,10,18,31.1,#
2005,10,19,31.2,C
2005,10,20,31.1,C
2005,10,21,32.1,C
2005,10,22,29.5,C
2005,10,23,26.9,C
2005,10,24,28.9,C
2005,10,25,28.2,C
2005,10,26,30.4,C
2005,10,27,32.8,C
2005,10,28,32.1,C
2005,10,29,24.7,C
2005,10,30,25.4,C
2005,10,31,22.9,C
2005,11,1,22.9,#
2005,11,2,27.4,C
2005,11,3,31.4,C
2005,11,4,31.8,C
2005,11,5,29.8,C
2005,11,6,31.1,C
2005,11,7,30.1,C
2005,11,8,31.4,C
2005,11,9,30.4,#
2005,11,10,32.1,C
2005,11,11,32.2,C
2005,11,12,29.5,C
2005,11,13,28.2,C
2005,11,14,31.1,C
2005,11,15,23.1,C
2005,11,16,25.9,C
2005,11,17,26.2,C
2005,11,18,25.2,C
2005,11,19,23.3,C
2005,11,20,22.5,C
2005,11,21,23.3,C
2005,11,22,24.4,C
2005,11,23,25.6,C
2005,11,24,25.9,#
2005,11,25,26.4,C
2005,11,26,28.1,C
2005,11,27,28.3,C
2005,11,28,30.1,C
2005,11,29,26.6,C
2005,11,30,25.0,C
2005,12,1,26.7,C
2005,12,2,29.4,C
2005,12,3,28.0,C
2005,12,4,21.7,C
2005,12,5,15.0,C
2005,12,6,10.8,C
2005,12,7,17.1,C
2005,12,8,22.7,C
2005,12,9,27.3,C
2005,12,10,26.7,#
2005,12,11,22.2,C
2005,12,12,16.5,C
2005,12,13,17.4,C
2005,12,14,16.6,#
2005,12,15,17.6,C
2005,12,16,20.4,C
2005,12,17,20.7,C
2005,12,18,18.7,C
2005,12,19,20.9,#
2005,12,20,22.3,C
2005,12,21,18.3,C
2005,12,22,17.8,C
2005,12,23,21.9,C
2005,12,24,23.8,C
2005,12,25,23.7,C
2005,12,26,26.2,C
2005,12,27,22.2,C
2005,12,28,17.2,C
2005,12,29,22.7,C
2005,12,30,18.8,C
2005,12,31,27.0,C
2006,1,1,26.7,C
2006,1,2,26.7,C
2006,1,3,22.5,#
2006,1,4,23.5,C
2006,1,5,18.6,C
2006,1,6,11.7,C
2006,1,7,15.2,C
2006,1,8,12.1,C
2006,1,9,15.2,C
2006,1,10,19.3,C
2006,1,11,24.0,C
2006,1,12,26.6,#
2006,1,13,26.6,C
2006,1,14,24.1,C
2006,1,15,26.6,C
2006,1,16,27.5,#
2006,1,17,21.8,C
2006,1,18,21.6,C
2006,1,19,20.6,#
2006,1,20,19.2,C
2006,1,21,12.8,#
2006,1,22,11.3,C
2006,1,23,15.2,C
2006,1,24,16.8,C
2006,1,25,21.9,#
2006,1,26,21.5,C
2006,1,27,22.1,C
2006,1,28,16.1,C
2006,1,29,25.1,C
2006,1,30,26.6,C
2006,1,31,27.0,C
2006,2,1,27.4,C
2006,2,2,24.8,C
2006,2,3,26.8,C
2006,2,4,18.9,C
2006,2,5,23.0,C
2006,2,6,25.0,C
2006,2,7,27.8,C
2006,2,8,25.8,#
2006,2,9,21.8,C
2006,2,10,24.1,#
2006,2,11,25.7,C
2006,2,12,23.5,C
2006,2,13,20.4,C
2006,2,14,20.7,C
2006,2,15,27.5,C
2006,2,16,27.2,C
2006,2,17,20.7,#
2006,2,18,14.5,C
2006,2,19,18.9,#
2006,2,20,21.0,C
2006,2,21,28.3,C
2006,2,22,30.1,C
2006,2,23,22.5,C
2006,2,24,20.3,C
2006,2,25,22.3,C
2006,2,26,24.8,C
2006,2,27,17.4,#
2006,2,28,15.4,C
2006,3,1,12.7,C
2006,3,2,18.4,C
2006,3,3,23.6,C
2006,3,4,19.1,C
2006,3,5,19.1,#
2006,3,6,20.8,C
2006,3,7,23.5,C
2006,3,8,25.0,C
2006,3,9,26.0,C
2006,3,10,27.2,C
2006,3,11,26.0,C
2006,3,12,26.1,C
2006,3,13,12.2,C
2006,3,14,15.0,#
2006,3,15,21.3,C
2006,3,16,23.6,C
2006,3,17,23.0,C
2006,3,18,30.0,C
2006,3,19,25.3,C
2006,3,20,21.3,C
2006,3,21,23.7,C
2006,3,22,23.9,C
2006,3,23,24.8,C
2006,3,24,19.5,C
2006,3,25,18.6,C
2006,3,26,20.6,C
2006,3,27,19.5,#
2006,3,28,27.0,C
2006,3,29,26.7,#
2006,3,30,27.2,C
2006,3,31,27.5,C
2006,4,1,29.9,C
2006,4,2,25.9,C
2006,4,3,30.1,C
2006,4,4,30.4,C
2006,4,5,30.5,C
2006,4,6,29.5,C
2006,4,7,23.4,C
2006,4,8,26.9,C
2006,4,9,26.9,C
2006,4,10,30.6,C
2006,4,11,30.8,C
2006,4,12,30.6,C
2006,4,13,27.4,C
2006,4,14,17.9,C
2006,4,15,16.1,C
2006,4,16,18.6,C
2006,4,17,26.6,C
2006,4,18,29.9,#
2006,4,19,31.8,C
2006,4,20,31.5,C
2006,4,21,31.1,#
2006,4,22,30.6,C
2006,4,23,31.8,C
2006,4,24,28.7,C
2006,4,25,27.2,#
2006,4,26,30.7,C
2006,4,27,29.1,C
2006,4,28,27.2,C
2006,4,29,25.3,C
2006,4,30,29.1,C
2006,5,1,31.7,C
2006,5,2,30.6,C
2006,5,3,23.3,C
2006,5,4,27.8,C
2006,5,5,29.5,C
2006,5,6,32.1,C
2006,5,7,31.2,C
2006,5,8,32.8,C
2006,5,9,33.1,C
2006,5,10,33.5,C
2006,5,11,32.4,C
2006,5,12,33.5,C
2006,5,13,31.6,#
2006,5,14,28.7,C
2006,5,15,27.2,#
2006,5,16,25.3,C
2006,5,17,23.3,C
2006,5,18,29.6,C
2006,5,19,31.5,C
2006,5,20,26.6,C
2006,5,21,24.1,C
2006,5,22,27.3,C
2006,5,23,28.2,C
2006,5,24,28.8,C
2006,5,25,31.2,C
2006,5,26,31.9,#
2006,5,27,26.3,C
2006,5,28,25.8,C
2006,5,29,22.1,C
2006,5,30,26.8,C
2006,5,31,29.0,C
2006,6,1,28.4,C
2006,6,2,27.4,C
2006,6,3,28.4,C
2006,6,4,31.2,C
2006,6,5,30.1,C
2006,6,6,32.3,C
2006,6,7,30.6,C
2006,6,8,30.3,C
2006,6,9,27.6,#
2006,6,10,24.9,C
2006,6,11,27.9,#
2006,6,12,25.4,C
2006,6,13,31.0,C
2006,6,14,31.3,C
2006,6,15,30.0,C
2006,6,16,32.9,C
2006,6,17,33.3,C
2006,6,18,32.1,C
2006,6,19,27.7,C
2006,6,20,33.3,C
2006,6,21,33.5,C
2006,6,22,30.1,C
2006,6,23,34.4,C
2006,6,24,34.5,C
2006,6,25,34.2,C
2006,6,26,34.2,C
2006,6,27,33.5,C
2006,6,28,29.2,C
2006,6,29,32.4,C
2006,6,30,33.2,C
2006,7,1,33.9,C
2006,7,2,33.9,C
2006,7,3,33.8,C
2006,7,4,33.3,C
2006,7,5,33.5,#
2006,7,6,33.8,C
2006,7,7,34.8,C
2006,7,8,33.7,C
2006,7,9,31.2,C
2006,7,10,31.1,C
2006,7,11,31.6,C
2006,7,12,34.5,C
2006,7,13,35.4,C
2006,7,14,34.5,C
2006,7,15,30.0,C
2006,7,16,28.9,C
2006,7,17,32.1,C
2006,7,18,33.6,C
2006,7,19,33.5,C
2006,7,20,34.2,C
2006,7,21,34.0,C
2006,7,22,34.2,C
2006,7,23,35.0,C
2006,7,24,35.3,C
2006,7,25,35.5,C
2006,7,26,29.8,C
2006,7,27,27.9,C
2006,7,28,30.1,C
2006,7,29,25.1,C
2006,7,30,32.4,C
2006,7,31,34.4,C
2006,8,1,35.7,C
2006,8,2,29.0,C
2006,8,3,27.2,C
2006,8,4,30.3,C
2006,8,5,31.1,C
2006,8,6,31.5,C
2006,8,7,31.9,C
2006,8,8,34.5,C
2006,8,9,34.0,C
2006,8,10,30.7,C
2006,8,11,31.1,C
2006,8,12,33.4,C
2006,8,13,35.0,C
2006,8,14,34.8,C
2006,8,15,34.7,C
2006,8,16,35.3,C
2006,8,17,35.1,C
2006,8,18,34.9,C
2006,8,19,31.2,C
2006,8,20,32.3,C
2006,8,21,35.3,C
2006,8,22,35.3,C
2006,8,23,35.6,C
2006,8,24,30.7,C
2006,8,25,30.2,C
2006,8,26,32.2,C
2006,8,27,30.7,C
2006,8,28,30.4,C
2006,8,29,33.6,C
2006,8,30,34.4,C
2006,8,31,34.2,#
2006,9,1,34.8,#
2006,9,2,34.4,C
2006,9,3,31.8,C
2006,9,4,32.4,C
2006,9,5,34.2,C
2006,9,6,33.0,C
2006,9,7,28.6,#
2006,9,8,33.1,C
2006,9,9,31.1,C
2006,9,10,27.3,C
2006,9,11,26.4,C
2006,9,12,22.0,C
2006,9,13,24.1,C
2006,9,14,29.0,C
2006,9,15,32.0,C
2006,9,16,31.3,C
2006,9,17,32.8,C
2006,9,18,32.0,C
2006,9,19,32.4,C
2006,9,20,32.8,C
2006,9,21,32.8,C
2006,9,22,32.3,C
2006,9,23,33.8,C
2006,9,24,27.4,C
2006,9,25,32.9,C
2006,9,26,34.2,C
2006,9,27,33.0,#
2006,9,28,33.4,C
2006,9,29,34.4,C
2006,9,30,30.1,C
2006,10,1,28.6,C
2006,10,2,30.1,C
2006,10,3,33.2,C
2006,10,4,32.8,C
2006,10,5,33.1,C
2006,10,6,30.5,C
2006,10,7,31.6,C
2006,10,8,30.1,C
2006,10,9,27.2,C
2006,10,10,32.1,C
2006,10,11,30.7,C
2006,10,12,33.1,C
2006,10,13,32.0,C
2006,10,14,31.4,C
2006,10,15,29.4,#
2006,10,16,30.4,C
2006,10,17,30.5,C
2006,10,18,31.3,C
2006,10,19,31.2,C
2006,10,20,32.1,C
2006,10,21,31.6,#
2006,10,22,33.0,C
2006,10,23,33.7,C
2006,10,24,29.7,#
2006,10,25,31.2,C
2006,10,26,30.3,C
2006,10,27,30.0,C
2006,10,28,30.7,C
2006,10,29,31.9,C
2006,10,30,31.3,C
2006,10,31,29.8,C
2006,11,1,28.0,C
2006,11,2,27.3,C
2006,11,3,30.5,C
2006,11,4,31.2,C
2006,11,5,31.5,C
2006,11,6,30.6,C
2006,11,7,29.6,C
2006,11,8,30.7,C
2006,11,9,32.4,C
2006,11,10,30.9,C
2006,11,11,30.8,C
2006,11,12,29.0,C
2006,11,13,25.4,C
2006,11,14,26.9,C
2006,11,15,23.9,C
2006,11,16,27.3,C
2006,11,17,28.6,C
2006,11,18,27.4,C
2006,11,19,26.3,C
2006,11,20,27.9,C
2006,11,21,23.5,#
2006,11,22,20.4,C
2006,11,23,25.3,C
2006,11,24,24.4,C
2006,11,25,24.1,C
2006,11,26,29.6,#
2006,11,27,25.6,C
2006,11,28,23.2,C
2006,11,29,22.8,C
2006,11,30,24.1,C
2006,12,1,22.6,C
2006,12,2,21.8,C
2006,12,3,22.6,C
2006,12,4,24.6,C
2006,12,5,26.0,C
2006,12,6,25.0,C
2006,12,7,30.0,#
2006,12,8,30.4,C
2006,12,9,21.9,#
2006,12,10,***,#
2006,12,11,23.8,#
2006,12,12,24.5,C
2006,12,13,20.8,C
2006,12,14,15.5,C
2006,12,15,16.8,C
2006,12,16,18.7,C
2006,12,17,20.2,C
2006,12,18,20.6,C
2006,12,19,23.3,C
2006,12,20,22.6,C
2006,12,21,22.3,#
2006,12,22,23.4,C
2006,12,23,22.8,C
2006,12,24,23.5,C
2006,12,25,25.1,C
2006,12,26,21.5,C
2006,12,27,24.2,C
2006,12,28,21.9,C
2006,12,29,18.6,C
2006,12,30,23.0,#
2006,12,31,24.3,C
2007,1,1,25.6,C
2007,1,2,22.0,C
2007,1,3,22.5,C
2007,1,4,21.5,C
2007,1,5,21.4,C
2007,1,6,18.7,C
2007,1,7,19.2,C
2007,1,8,19.2,C
2007,1,9,20.9,C
2007,1,10,19.6,C
2007,1,11,19.0,C
2007,1,12,21.3,#
2007,1,13,24.0,C
2007,1,14,22.8,C
2007,1,15,24.2,C
2007,1,16,27.4,C
2007,1,17,20.0,C
2007,1,18,17.6,C
2007,1,19,21.2,C
2007,1,20,17.3,C
2007,1,21,15.9,C
2007,1,22,18.5,C
2007,1,23,19.6,C
2007,1,24,18.2,C
2007,1,25,19.0,C
2007,1,26,20.7,C
2007,1,27,20.3,C
2007,1,28,20.1,C
2007,1,29,22.4,C
2007,1,30,23.6,C
2007,1,31,24.8,C
2007,2,1,21.9,C
2007,2,2,22.6,C
2007,2,3,23.5,C
2007,2,4,23.5,C
2007,2,5,26.4,C
2007,2,6,28.4,C
2007,2,7,28.3,C
2007,2,8,28.6,C
2007,2,9,28.2,C
2007,2,10,24.5,C
2007,2,11,21.1,C
2007,2,12,24.4,C
2007,2,13,26.3,C
2007,2,14,25.9,C
2007,2,15,19.8,C
2007,2,16,22.8,C
2007,2,17,24.0,C
2007,2,18,25.5,C
2007,2,19,20.8,C
2007,2,20,23.6,C
2007,2,21,20.9,C
2007,2,22,19.0,C
2007,2,23,23.9,C
2007,2,24,20.0,C
2007,2,25,26.5,C
2007,2,26,22.8,C
2007,2,27,24.3,C
2007,2,28,23.7,C
2007,3,1,21.9,C
2007,3,2,27.9,C
2007,3,3,28.9,C
2007,3,4,26.8,C
2007,3,5,25.3,C
2007,3,6,18.5,C
2007,3,7,12.0,C
2007,3,8,14.3,C
2007,3,9,17.0,#
2007,3,10,23.8,C
2007,3,11,18.5,C
2007,3,12,20.5,C
2007,3,13,25.2,C
2007,3,14,23.9,C
2007,3,15,28.7,C
2007,3,16,27.6,C
2007,3,17,22.9,C
2007,3,18,19.5,C
2007,3,19,22.1,C
2007,3,20,21.3,C
2007,3,21,22.4,C
2007,3,22,22.7,C
2007,3,23,25.1,C
2007,3,24,24.8,C
2007,3,25,28.1,C
2007,3,26,25.3,C
2007,3,27,28.7,C
2007,3,28,25.4,C
2007,3,29,28.2,C
2007,3,30,29.6,C
2007,3,31,29.4,C
2007,4,1,29.1,C
2007,4,2,27.0,C
2007,4,3,16.1,#
2007,4,4,13.6,C
2007,4,5,15.5,C
2007,4,6,18.5,C
2007,4,7,20.0,C
2007,4,8,21.6,C
2007,4,9,26.5,C
2007,4,10,19.9,#
2007,4,11,26.0,C
2007,4,12,27.6,C
2007,4,13,29.5,C
2007,4,14,28.6,#
2007,4,15,29.9,C
2007,4,16,31.9,C
2007,4,17,28.5,C
2007,4,18,28.5,C
2007,4,19,27.8,C
2007,4,20,28.2,C
2007,4,21,28.2,C
2007,4,22,30.1,C
2007,4,23,27.2,C
2007,4,24,26.9,#
2007,4,25,21.0,C
2007,4,26,29.5,C
2007,4,27,31.1,C
2007,4,28,28.7,C
2007,4,29,24.8,C
2007,4,30,25.9,C
2007,5,1,33.5,C
2007,5,2,34.1,C
2007,5,3,30.2,C
2007,5,4,25.1,C
2007,5,5,26.8,C
2007,5,6,29.3,C
2007,5,7,34.2,C
2007,5,8,32.5,C
2007,5,9,30.5,C
2007,5,10,30.7,C
2007,5,11,30.8,C
2007,5,12,32.2,C
2007,5,13,29.7,C
2007,5,14,31.9,C
2007,5,15,32.2,C
2007,5,16,33.2,C
2007,5,17,33.2,C
2007,5,18,32.7,#
2007,5,19,29.5,C
2007,5,20,22.7,C
2007,5,21,25.2,C
2007,5,22,26.5,#
2007,5,23,31.7,C
2007,5,24,34.0,C
2007,5,25,33.7,C
2007,5,26,33.1,C
2007,5,27,31.2,#
2007,5,28,31.3,C
2007,5,29,33.5,C
2007,5,30,33.6,C
2007,5,31,32.3,C
2007,6,1,34.6,C
2007,6,2,32.9,#
2007,6,3,34.1,C
2007,6,4,34.7,C
2007,6,5,35.0,C
2007,6,6,32.2,C
2007,6,7,30.3,C
2007,6,8,30.3,#
2007,6,9,31.7,C
2007,6,10,27.8,#
2007,6,11,32.0,C
2007,6,12,30.7,C
2007,6,13,31.1,C
2007,6,14,27.8,C
2007,6,15,31.0,C
2007,6,16,32.7,C
2007,6,17,30.0,C
2007,6,18,33.5,C
2007,6,19,33.2,C
2007,6,20,34.9,C
2007,6,21,33.6,C
2007,6,22,34.0,C
2007,6,23,34.8,C
2007,6,24,33.7,C
2007,6,25,33.7,C
2007,6,26,33.9,C
2007,6,27,30.9,C
2007,6,28,27.3,C
2007,6,29,29.1,C
2007,6,30,30.3,C
2007,7,1,29.6,C
2007,7,2,33.7,C
2007,7,3,32.8,C
2007,7,4,33.6,C
2007,7,5,32.8,C
2007,7,6,33.2,C
2007,7,7,34.6,C
2007,7,8,35.2,#
2007,7,9,34.6,#
2007,7,10,35.1,C
2007,7,11,35.4,C
2007,7,12,35.3,C
2007,7,13,35.0,C
2007,7,14,36.0,C
2007,7,15,35.6,C
2007,7,16,35.5,C
2007,7,17,33.7,C
2007,7,18,33.7,C
2007,7,19,34.4,C
2007,7,20,33.8,C
2007,7,21,34.6,C
2007,7,22,35.5,C
2007,7,23,35.5,C
2007,7,24,34.3,C
2007,7,25,35.0,C
2007,7,26,34.9,C
2007,7,27,35.4,C
2007,7,28,36.2,C
2007,7,29,33.6,C
2007,7,30,35.5,C
2007,7,31,34.4,C
2007,8,1,34.2,C
2007,8,2,35.8,C
2007,8,3,35.9,C
2007,8,4,36.0,C
2007,8,5,33.1,C
2007,8,6,30.2,C
2007,8,7,34.8,C
2007,8,8,33.9,#
2007,8,9,30.5,C
2007,8,10,27.3,C
2007,8,11,26.9,#
2007,8,12,28.2,C
2007,8,13,32.2,C
2007,8,14,27.9,C
2007,8,15,31.2,C
2007,8,16,26.8,C
2007,8,17,33.4,C
2007,8,18,35.6,#
2007,8,19,34.6,C
2007,8,20,32.4,C
2007,8,21,30.6,C
2007,8,22,28.7,C
2007,8,23,29.7,C
2007,8,24,32.7,C
2007,8,25,33.6,C
2007,8,26,32.9,C
2007,8,27,31.5,C
2007,8,28,31.2,#
2007,8,29,35.2,C
2007,8,30,33.7,C
2007,8,31,33.6,C
2007,9,1,33.4,C
2007,9,2,30.0,C
2007,9,3,32.6,C
2007,9,4,30.6,C
2007,9,5,29.8,C
2007,9,6,29.7,C
2007,9,7,31.4,C
2007,9,8,33.1,C
2007,9,9,31.4,C
2007,9,10,32.1,C
2007,9,11,34.8,C
2007,9,12,32.7,C
2007,9,13,34.7,C
2007,9,14,33.4,C
2007,9,15,35.2,C
2007,9,16,32.4,C
2007,9,17,33.1,C
2007,9,18,34.0,C
2007,9,19,32.7,C
2007,9,20,32.3,C
2007,9,21,33.9,C
2007,9,22,33.4,C
2007,9,23,28.0,C
2007,9,24,26.8,#
2007,9,25,29.3,C
2007,9,26,33.5,C
2007,9,27,34.4,#
2007,9,28,34.0,C
2007,9,29,35.2,C
2007,9,30,33.4,C
2007,10,1,32.5,C
2007,10,2,29.6,C
2007,10,3,28.2,C
2007,10,4,31.8,C
2007,10,5,35.0,C
2007,10,6,34.0,C
2007,10,7,34.5,C
2007,10,8,32.4,C
2007,10,9,30.5,C
2007,10,10,29.2,C
2007,10,11,30.2,C
2007,10,12,26.8,C
2007,10,13,29.3,C
2007,10,14,27.9,C
2007,10,15,27.9,C
2007,10,16,28.1,C
2007,10,17,27.7,C
2007,10,18,28.3,C
2007,10,19,28.7,C
2007,10,20,29.2,C
2007,10,21,28.5,C
2007,10,22,29.6,C
2007,10,23,30.9,C
2007,10,24,31.5,C
2007,10,25,32.4,C
2007,10,26,32.9,C
2007,10,27,29.8,C
2007,10,28,28.8,C
2007,10,29,29.4,C
2007,10,30,25.9,C
2007,10,31,23.1,C
2007,11,1,20.4,C
2007,11,2,21.4,C
2007,11,3,25.2,C
2007,11,4,26.6,C
2007,11,5,26.3,C
2007,11,6,28.1,C
2007,11,7,25.1,C
2007,11,8,21.4,C
2007,11,9,27.7,C
2007,11,10,28.0,C
2007,11,11,26.9,C
2007,11,12,26.9,C
2007,11,13,26.8,C
2007,11,14,27.2,C
2007,11,15,27.7,C
2007,11,16,29.0,#
2007,11,17,28.4,C
2007,11,18,23.2,C
2007,11,19,23.6,C
2007,11,20,25.4,C
2007,11,21,26.2,C
2007,11,22,24.7,C
2007,11,23,24.3,#
2007,11,24,25.9,C
2007,11,25,24.9,C
2007,11,26,24.0,C
2007,11,27,23.2,C
2007,11,28,21.0,C
2007,11,29,22.7,C
2007,11,30,23.1,C
2007,12,1,24.9,#
2007,12,2,26.8,C
2007,12,3,23.8,C
2007,12,4,23.8,C
2007,12,5,21.0,C
2007,12,6,22.7,C
2007,12,7,22.5,C
2007,12,8,22.2,#
2007,12,9,24.1,C
2007,12,10,26.1,C
2007,12,11,28.2,C
2007,12,12,28.3,C
2007,12,13,25.9,C
2007,12,14,24.4,C
2007,12,15,25.4,C
2007,12,16,25.0,C
2007,12,17,24.6,C
2007,12,18,25.4,C
2007,12,19,19.6,C
2007,12,20,24.8,C
2007,12,21,25.4,C
2007,12,22,24.5,C
2007,12,23,20.8,C
2007,12,24,18.4,C
2007,12,25,18.6,C
2007,12,26,22.1,C
2007,12,27,24.3,C
2007,12,28,25.5,#
2007,12,29,18.9,C
2007,12,30,18.3,C
2007,12,31,17.1,C
2008,1,1,16.4,C
2008,1,2,17.9,#
2008,1,3,20.7,C
2008,1,4,21.9,C
2008,1,5,23.9,C
2008,1,6,24.3,C
2008,1,7,27.9,C
2008,1,8,25.2,C
2008,1,9,25.7,C
2008,1,10,23.5,C
2008,1,11,26.1,C
2008,1,12,29.1,#
2008,1,13,20.6,C
2008,1,14,16.3,#
2008,1,15,15.9,C
2008,1,16,15.4,C
2008,1,17,12.0,C
2008,1,18,16.2,C
2008,1,19,22.5,C
2008,1,20,27.1,C
2008,1,21,23.9,C
2008,1,22,22.4,C
2008,1,23,20.3,C
2008,1,24,16.8,C
2008,1,25,10.4,C
2008,1,26,10.3,#
2008,1,27,8.9,C
2008,1,28,13.6,C
2008,1,29,11.2,C
2008,1,30,9.6,C
2008,1,31,8.3,#
2008,2,1,9.6,#
2008,2,2,7.5,C
2008,2,3,16.5,C
2008,2,4,11.8,C
2008,2,5,11.8,C
2008,2,6,13.5,#
2008,2,7,9.9,C
2008,2,8,13.8,C
2008,2,9,16.2,C
2008,2,10,11.9,C
2008,2,11,10.8,C
2008,2,12,14.5,C
2008,2,13,14.5,C
2008,2,14,13.6,C
2008,2,15,19.3,C
2008,2,16,17.8,C
2008,2,17,19.8,C
2008,2,18,22.5,C
2008,2,19,21.7,C
2008,2,20,23.7,C
2008,2,21,24.9,C
2008,2,22,19.5,C
2008,2,23,20.4,C
2008,2,24,16.4,C
2008,2,25,18.8,C
2008,2,26,19.0,C
2008,2,27,19.1,C
2008,2,28,20.2,C
2008,2,29,16.8,C
2008,3,1,23.7,C
2008,3,2,26.8,C
2008,3,3,28.2,#
2008,3,4,26.1,#
2008,3,5,24.0,#
2008,3,6,22.1,C
2008,3,7,25.1,C
2008,3,8,24.9,C
2008,3,9,27.0,C
2008,3,10,26.6,C
2008,3,11,26.2,C
2008,3,12,25.3,C
2008,3,13,27.3,C
2008,3,14,25.5,C
2008,3,15,25.2,C
2008,3,16,26.7,C
2008,3,17,24.8,C
2008,3,18,25.5,C
2008,3,19,29.3,C
2008,3,20,21.7,C
2008,3,21,23.0,C
2008,3,22,21.0,C
2008,3,23,20.6,C
2008,3,24,27.5,C
2008,3,25,20.5,C
2008,3,26,20.5,C
2008,3,27,24.3,C
2008,3,28,24.4,C
2008,3,29,29.2,C
2008,3,30,27.5,C
2008,3,31,21.6,C
2008,4,1,17.5,C
2008,4,2,18.7,C
2008,4,3,18.9,C
2008,4,4,25.6,C
2008,4,5,28.1,C
2008,4,6,30.2,C
2008,4,7,31.0,C
2008,4,8,30.1,C
2008,4,9,28.1,C
2008,4,10,31.0,C
2008,4,11,25.2,C
2008,4,12,25.5,C
2008,4,13,24.8,C
2008,4,14,27.1,#
2008,4,15,29.3,C
2008,4,16,31.3,C
2008,4,17,29.4,#
2008,4,18,25.1,C
2008,4,19,25.4,C
2008,4,20,29.1,C
2008,4,21,28.9,C
2008,4,22,31.0,C
2008,4,23,23.4,C
2008,4,24,21.4,C
2008,4,25,22.2,C
2008,4,26,28.0,C
2008,4,27,25.3,C
2008,4,28,21.5,C
2008,4,29,24.9,C
2008,4,30,28.8,#
2008,5,1,26.8,C
2008,5,2,24.8,C
2008,5,3,29.5,C
2008,5,4,31.9,C
2008,5,5,31.2,C
2008,5,6,26.1,C
2008,5,7,29.7,C
2008,5,8,32.3,C
2008,5,9,33.3,C
2008,5,10,26.1,C
2008,5,11,24.2,C
2008,5,12,30.1,C
2008,5,13,30.3,#
2008,5,14,31.6,C
2008,5,15,30.6,#
2008,5,16,30.9,C
2008,5,17,30.2,#
2008,5,18,30.3,C
2008,5,19,24.4,C
2008,5,20,21.5,C
2008,5,21,25.0,C
2008,5,22,28.0,C
2008,5,23,32.0,C
2008,5,24,31.7,C
2008,5,25,29.9,C
2008,5,26,30.9,C
2008,5,27,32.0,#
2008,5,28,30.1,C
2008,5,29,29.1,#
2008,5,30,27.2,C
2008,5,31,27.7,C
2008,6,1,29.0,C
2008,6,2,29.5,C
2008,6,3,27.9,C
2008,6,4,27.6,C
2008,6,5,30.7,C
2008,6,6,24.4,C
2008,6,7,24.2,#
2008,6,8,30.9,C